CW0451 Weather Reports


Display with metric or nautical units.
time (UTC)temp
F
wind
direction
speed
MPH
gust
MPH
rain 1hr
in
rain 24hr
in
rain mn
in
humidity
%
barometer
mb
20220527163101 70 193 10.0 15.0 0.00 0.02 0.02 89 1013.2
20220527162102 69 192 3.0 9.0 0.00 0.02 0.02 92 1013.4
20220527161101 68 197 8.0 15.0 0.00 0.02 0.02 93 1013.6
20220527160102 67 201 9.0 14.0 0.00 0.02 0.02 95 1013.7
20220527155101 66 195 7.0 15.0 0.00 0.02 0.02 95 1013.9
20220527154102 66 194 8.0 14.0 0.00 0.02 0.02 95 1014.0
20220527153102 65 185 9.0 16.0 0.00 0.02 0.02 95 1014.1
20220527152101 65 197 8.0 18.0 0.00 0.02 0.02 95 1014.1
20220527151102 65 188 8.0 14.0 0.00 0.02 0.02 95 1014.1
20220527150101 65 193 8.0 14.0 0.00 0.02 0.02 95 1014.2
20220527145102 65 187 7.0 15.0 0.00 0.02 0.02 95 1014.3
20220527144101 65 188 5.0 15.0 0.00 0.02 0.02 95 1014.3
20220527143102 65 190 7.0 14.0 0.00 0.02 0.02 95 1014.5
20220527142101 65 207 5.0 11.0 0.00 0.02 0.02 95 1014.6
20220527141102 65 197 5.0 14.0 0.00 0.02 0.02 95 1014.6
20220527140102 65 199 5.0 16.0 0.00 0.02 0.02 95 1014.7
20220527135102 65 200 10.0 15.0 0.00 0.02 0.02 95 1014.7
20220527134101 65 194 10.0 18.0 0.00 0.02 0.02 95 1014.7
20220527133102 65 211 9.0 16.0 0.00 0.02 0.02 95 1014.8
20220527132102 65 191 9.0 16.0 0.00 0.02 0.02 95 1014.8
20220527131101 65 205 8.0 21.0 0.00 0.02 0.02 95 1014.9
20220527130102 65 196 7.0 15.0 0.00 0.02 0.02 95 1015.0
20220527125101 65 194 8.0 17.0 0.00 0.02 0.02 95 1015.0
20220527124102 64 202 10.0 19.0 0.00 0.02 0.02 95 1015.1
20220527123101 64 186 10.0 16.0 0.00 0.02 0.02 95 1015.1
20220527122102 64 201 8.0 17.0 0.00 0.02 0.02 95 1015.3
20220527121102 64 200 8.0 17.0 0.00 0.02 0.02 95 1015.5
20220527120102 64 203 10.0 16.0 0.00 0.02 0.02 95 1015.4
20220527115101 64 196 6.0 10.0 0.00 0.02 0.02 95 1015.5
20220527114102 64 193 8.0 15.0 0.00 0.02 0.02 95 1015.5
20220527113101 64 205 6.0 13.0 0.00 0.02 0.02 95 1015.6
20220527112102 63 200 6.0 14.0 0.00 0.02 0.02 95 1015.6
20220527111102 63 187 9.0 14.0 0.00 0.02 0.02 95 1015.7
20220527110101 63 194 6.0 12.0 0.00 0.02 0.02 95 1015.8
20220527105102 63 190 8.0 14.0 0.00 0.02 0.02 95 1015.8
20220527104102 63 202 4.0 14.0 0.00 0.02 0.02 95 1015.8
20220527103102 63 196 8.0 13.0 0.00 0.02 0.02 95 1015.8
20220527102101 63 187 8.0 14.0 0.00 0.02 0.02 95 1016.0
20220527101102 63 178 6.0 11.0 0.00 0.02 0.02 94 1016.0
20220527100101 63 187 8.0 13.0 0.00 0.02 0.02 94 1016.0
20220527095102 63 183 5.0 10.0 0.02 0.02 0.02 95 1016.0
20220527094101 62 201 6.0 10.0 0.02 0.02 0.02 95 1016.2
20220527093102 62 196 7.0 9.0 0.02 0.02 0.02 94 1016.2
20220527092101 62 207 3.0 9.0 0.01 0.01 0.01 94 1016.2
20220527091102 62 201 4.0 11.0 0.01 0.01 0.01 94 1016.1
20220527090101 62 191 6.0 13.0 0.01 0.01 0.01 94 1016.2
20220527085102 62 192 4.0 11.0 0.00 0.00 0.00 94 1016.3
20220527084102 62 206 4.0 10.0 0.00 0.00 0.00 94 1016.4
20220527083102 62 204 5.0 9.0 0.00 0.00 0.00 94 1016.5
20220527082102 62 208 4.0 9.0 0.00 0.00 0.00 94 1016.5
20220527081101 62 205 5.0 10.0 0.00 0.00 0.00 94 1016.4
20220527080102 62 204 6.0 12.0 0.00 0.00 0.00 94 1016.5
20220527075101 61 204 5.0 10.0 0.00 0.00 0.00 93 1016.4
20220527074102 61 198 3.0 8.0 0.00 0.00 0.00 93 1016.5
20220527073101 61 184 5.0 9.0 0.00 0.00 0.00 93 1016.6
20220527072102 61 202 6.0 10.0 0.00 0.00 0.00 93 1016.8
20220527071101 61 180 5.0 9.0 0.00 0.00 0.00 93 1016.9
20220527070102 61 188 4.0 11.0 0.00 0.00 0.00 92 1017.0
20220527065101 61 203 5.0 11.0 0.00 0.00 0.00 92 1017.2
20220527064102 61 198 7.0 11.0 0.00 0.00 0.00 91 1017.3
20220527063102 61 207 7.0 13.0 0.00 0.00 0.00 91 1017.4
20220527062102 61 215 4.0 11.0 0.00 0.00 0.00 91 1017.5
20220527061102 61 189 4.0 10.0 0.00 0.00 0.00 92 1017.6
20220527060101 61 189 3.0 10.0 0.00 0.00 0.00 92 1017.8
20220527055102 61 208 4.0 11.0 0.00 0.00 0.00 92 1018.1
20220527054102 61 193 4.0 10.0 0.00 0.00 0.00 92 1018.3
20220527053102 60 215 3.0 12.0 0.00 0.00 0.00 92 1018.3
20220527052101 60 197 6.0 11.0 0.00 0.00 0.00 92 1018.4
20220527051102 60 200 4.0 10.0 0.00 0.00 0.00 92 1018.6
20220527050101 60 197 6.0 13.0 0.00 0.00 0.00 92 1018.6
20220527045102 60 211 7.0 12.0 0.00 0.00 0.00 92 1018.6
20220527044101 59 217 8.0 15.0 0.00 0.00 0.00 93 1018.8
20220527043102 59 220 3.0 13.0 0.00 0.00 0.00 92 1018.9
20220527042101 58 195 6.0 10.0 0.00 0.00 0.00 93 1019.0
20220527041102 58 193 4.0 8.0 0.00 0.00 0.00 92 1019.3
20220527040101 58 185 4.0 9.0 0.00 0.00 0.00 93 1019.3
20220527035102 58 188 4.0 7.0 0.00 0.00 0.00 92 1019.5
20220527034101 57 204 3.0 7.0 0.00 0.00 0.00 92 1019.6
20220527033102 57 207 3.0 7.0 0.00 0.00 0.00 92 1019.8
20220527032101 57 204 4.0 8.0 0.00 0.00 0.00 92 1020.0
20220527031102 57 202 2.0 7.0 0.00 0.00 0.00 91 1020.1
20220527030102 57 203 3.0 8.0 0.00 0.00 0.00 91 1020.3
20220527025102 57 213 4.0 8.0 0.00 0.00 0.00 91 1020.3
20220527024102 57 217 4.0 9.0 0.00 0.00 0.00 91 1020.4
20220527023102 57 199 6.0 9.0 0.00 0.00 0.00 90 1020.4
20220527022102 58 195 3.0 10.0 0.00 0.00 0.00 90 1020.4
20220527021101 58 204 3.0 10.0 0.00 0.00 0.00 90 1020.4
20220527020102 58 198 4.0 11.0 0.00 0.00 0.00 89 1020.5
20220527015101 58 197 3.0 11.0 0.00 0.00 0.00 89 1020.5
20220527014102 58 193 2.0 8.0 0.00 0.00 0.00 89 1020.6
20220527013101 58 186 3.0 9.0 0.00 0.00 0.00 88 1020.5
20220527012103 58 207 3.0 10.0 0.00 0.00 0.00 88 1020.5
20220527011101 58 216 1.0 8.0 0.00 0.00 0.00 87 1020.5
20220527010102 58 206 5.0 14.0 0.00 0.00 0.00 87 1020.4
20220527005102 58 202 5.0 12.0 0.00 0.00 0.00 87 1020.4
20220527004102 59 194 6.0 11.0 0.00 0.00 0.00 86 1020.4
20220527003101 59 188 6.0 14.0 0.00 0.00 0.00 86 1020.4
20220527002102 59 200 8.0 12.0 0.00 0.00 0.00 85 1020.4
20220527001102 59 198 7.0 14.0 0.00 0.00 0.00 84 1020.5
20220527000102 60 189 9.0 14.0 0.00 0.00 0.00 83 1020.6
20220526235102 60 195 6.0 15.0 0.00 0.00 0.00 82 1020.6
20220526234101 61 188 7.0 11.0 0.00 0.00 0.00 81 1020.8
20220526233102 61 193 9.0 17.0 0.00 0.00 0.00 80 1020.9
20220526232101 61 199 8.0 15.0 0.00 0.00 0.00 79 1021.0
20220526231102 62 201 7.0 15.0 0.00 0.00 0.00 78 1021.0
20220526230101 62 201 7.0 20.0 0.00 0.00 0.00 78 1021.2
20220526225102 62 180 8.0 19.0 0.00 0.00 0.00 77 1021.2
20220526224101 62 187 11.0 17.0 0.00 0.00 0.00 76 1021.3
20220526223102 62 189 10.0 20.0 0.00 0.00 0.00 76 1021.5
20220526222102 62 191 9.0 17.0 0.00 0.00 0.00 75 1021.5
20220526221102 62 206 10.0 20.0 0.00 0.00 0.00 74 1021.5
20220526220102 62 211 10.0 18.0 0.00 0.00 0.00 75 1021.6
20220526215102 63 178 11.0 18.0 0.00 0.00 0.00 73 1021.7
20220526214102 63 201 10.0 21.0 0.00 0.00 0.00 73 1021.7
20220526213102 63 184 12.0 23.0 0.00 0.00 0.00 72 1021.9
20220526212102 64 187 14.0 19.0 0.00 0.00 0.00 72 1022.0
20220526211101 63 201 11.0 23.0 0.00 0.00 0.00 70 1022.1
20220526210102 64 192 14.0 24.0 0.00 0.00 0.00 69 1022.4
20220526205101 64 205 11.0 22.0 0.00 0.00 0.00 70 1022.3
20220526204102 64 197 12.0 24.0 0.00 0.00 0.00 69 1022.4
20220526203102 64 190 13.0 23.0 0.00 0.00 0.00 69 1022.4
20220526202102 64 190 14.0 23.0 0.00 0.00 0.00 68 1022.4
20220526201102 64 199 13.0 21.0 0.00 0.00 0.00 67 1022.5
20220526200102 64 200 7.0 26.0 0.00 0.00 0.00 68 1022.6
20220526195102 64 191 15.0 26.0 0.00 0.00 0.00 68 1022.8
20220526194101 64 190 13.0 26.0 0.00 0.00 0.00 66 1023.1
20220526193102 65 181 12.0 24.0 0.00 0.00 0.00 65 1023.1
20220526192101 65 201 13.0 21.0 0.00 0.00 0.00 64 1023.3
20220526191102 66 206 10.0 20.0 0.00 0.00 0.00 64 1023.5
20220526190102 65 195 13.0 21.0 0.00 0.00 0.00 63 1023.6
20220526185101 65 223 9.0 20.0 0.00 0.00 0.00 62 1023.7
20220526184102 66 220 10.0 20.0 0.00 0.00 0.00 61 1023.7
20220526183102 66 193 11.0 20.0 0.00 0.00 0.00 64 1023.9
20220526182102 66 210 8.0 21.0 0.00 0.00 0.00 66 1024.0
20220526181101 66 174 13.0 22.0 0.00 0.00 0.00 63 1024.1
20220526180102 66 175 12.0 20.0 0.00 0.00 0.00 65 1024.2
20220526175102 65 198 11.0 21.0 0.00 0.00 0.00 66 1024.2
20220526174102 66 192 11.0 20.0 0.00 0.00 0.00 65 1024.4
20220526173102 65 211 5.0 21.0 0.00 0.00 0.00 67 1024.6
20220526172102 65 191 13.0 21.0 0.00 0.00 0.00 65 1024.9
20220526171102 65 186 6.0 20.0 0.00 0.00 0.00 67 1025.0
20220526170101 65 168 12.0 22.0 0.00 0.00 0.00 65 1025.1
20220526165102 66 177 12.0 18.0 0.00 0.00 0.00 66 1025.4
20220526164101 65 203 7.0 21.0 0.00 0.00 0.00 64 1025.5